NPV7805 LIME-LIBC

Flight info

Callsign NPV7805
Flight time 1h 19m
Altitude 19000
Route LOGDI Y663 EKDIR/N0447F370 DCT INSOX DCT POLIT DCT EVINO/N0394F190 M620 CDC
Aircraft A320/M-SDE3FGHIRWY/LB1

Departure

Time 2026-04-25 18:21
Airport Il Caravaggio International Airport (LIME)

Arrival

Time 2026-04-25 19:41
Airport Crotone Sant'Anna Pythagoras Airport (LIBC)
Time Latitude Longitude Altitude Speed Heading
2026-04-25 18:10 45.66571 9.70523 780 ft 0 kts 194°
2026-04-25 18:15 45.66589 9.70529 779 ft 4 kts 191°
2026-04-25 18:15 45.66615 9.70534 779 ft 4 kts 179°
2026-04-25 18:15 45.66640 9.70528 779 ft 4 kts 140°
2026-04-25 18:15 45.66648 9.70515 779 ft 0 kts 105°
2026-04-25 18:17 45.66647 9.70520 779 ft 4 kts 105°
2026-04-25 18:17 45.66631 9.70612 778 ft 15 kts 104°
2026-04-25 18:17 45.66605 9.70751 777 ft 14 kts 105°
2026-04-25 18:18 45.66580 9.70883 776 ft 13 kts 105°
2026-04-25 18:18 45.66558 9.71004 775 ft 12 kts 104°
2026-04-25 18:18 45.66532 9.71122 774 ft 15 kts 111°
2026-04-25 18:18 45.66489 9.71292 773 ft 20 kts 105°
2026-04-25 18:19 45.66452 9.71491 771 ft 22 kts 105°
2026-04-25 18:19 45.66456 9.71707 769 ft 23 kts 75°
2026-04-25 18:19 45.66466 9.71900 766 ft 19 kts 101°
2026-04-25 18:19 45.66432 9.72093 765 ft 21 kts 104°
2026-04-25 18:20 45.66393 9.72305 763 ft 23 kts 104°
2026-04-25 18:20 45.66415 9.72465 762 ft 17 kts
2026-04-25 18:20 45.66496 9.72247 765 ft 46 kts 285°
2026-04-25 18:20 45.66640 9.71470 772 ft 113 kts 285°
2026-04-25 18:21 45.66888 9.70135 805 ft 161 kts 283°
2026-04-25 18:21 45.67133 9.68578 1457 ft 160 kts 273°
2026-04-25 18:21 45.66975 9.67039 2150 ft 159 kts 244°
2026-04-25 18:21 45.66264 9.65829 2727 ft 166 kts 210°
2026-04-25 18:22 45.65076 9.65522 3015 ft 190 kts 168°
2026-04-25 18:22 45.64655 9.65696 3106 ft 197 kts 161°
2026-04-25 18:22 45.62299 9.67063 3587 ft 239 kts 158°
2026-04-25 18:22 45.60691 9.68030 3998 ft 262 kts 158°
2026-04-25 18:23 45.58976 9.69061 4748 ft 271 kts 158°
2026-04-25 18:23 45.57222 9.70109 5580 ft 276 kts 158°
2026-04-25 18:23 45.55439 9.71163 6413 ft 280 kts 158°
2026-04-25 18:23 45.53617 9.72235 7212 ft 285 kts 158°
2026-04-25 18:24 45.51775 9.73314 8012 ft 289 kts 158°
2026-04-25 18:24 45.49903 9.74408 8829 ft 293 kts 157°
2026-04-25 18:24 45.48014 9.75512 9707 ft 297 kts 157°
2026-04-25 18:24 45.46077 9.76643 10370 ft 306 kts 157°
2026-04-25 18:25 45.44032 9.77835 10601 ft 330 kts 157°
2026-04-25 18:25 45.41861 9.79097 10784 ft 353 kts 158°
2026-04-25 18:25 45.39535 9.80448 11141 ft 367 kts 158°
2026-04-25 18:25 45.37152 9.81827 11789 ft 372 kts 158°
2026-04-25 18:26 45.34747 9.83221 12500 ft 375 kts 158°
2026-04-25 18:26 45.32315 9.84632 13211 ft 378 kts 158°
2026-04-25 18:26 45.29847 9.86064 13915 ft 381 kts 158°
2026-04-25 18:26 45.27405 9.87481 14525 ft 384 kts 158°
2026-04-25 18:27 45.24918 9.88924 15101 ft 388 kts 159°
2026-04-25 18:27 45.22394 9.90385 15682 ft 392 kts 159°
2026-04-25 18:27 45.19849 9.91851 16243 ft 397 kts 159°
2026-04-25 18:27 45.17277 9.93332 16795 ft 401 kts 159°
2026-04-25 18:28 45.14693 9.94818 17336 ft 405 kts 160°
2026-04-25 18:28 45.12062 9.96329 17873 ft 408 kts 160°
2026-04-25 18:28 45.09430 9.97843 18389 ft 412 kts 160°
2026-04-25 18:29 45.04066 10.00930 19290 ft 420 kts 160°
2026-04-25 18:29 45.01342 10.02492 19732 ft 423 kts 160°
2026-04-25 18:30 44.93077 10.07214 21018 ft 434 kts 159°
2026-04-25 18:30 44.91197 10.08287 21307 ft 436 kts 159°
2026-04-25 18:30 44.87414 10.10449 21880 ft 441 kts 159°
2026-04-25 18:30 44.84573 10.12069 22286 ft 444 kts 159°
2026-04-25 18:31 44.81686 10.13714 22703 ft 447 kts 159°
2026-04-25 18:31 44.78830 10.15338 23099 ft 450 kts 159°
2026-04-25 18:31 44.75914 10.16990 23492 ft 453 kts 159°
2026-04-25 18:31 44.72984 10.18674 23838 ft 457 kts 157°
2026-04-25 18:32 44.70182 10.20799 24191 ft 460 kts 148°
2026-04-25 18:32 44.67563 10.23426 24540 ft 463 kts 145°
2026-04-25 18:32 44.65805 10.25231 24792 ft 464 kts 145°
2026-04-25 18:32 44.63215 10.27881 25145 ft 466 kts 146°
2026-04-25 18:33 44.60575 10.30566 25505 ft 468 kts 146°
2026-04-25 18:33 44.57918 10.33258 25871 ft 470 kts 146°
2026-04-25 18:33 44.55290 10.35917 26219 ft 472 kts 146°
2026-04-25 18:33 44.52617 10.38624 26566 ft 474 kts 146°
2026-04-25 18:34 44.49928 10.41349 26894 ft 476 kts 146°
2026-04-25 18:34 44.47228 10.44084 27231 ft 478 kts 146°
2026-04-25 18:34 44.44548 10.46793 27523 ft 480 kts 146°
2026-04-25 18:34 44.41823 10.49544 27820 ft 482 kts 146°
2026-04-25 18:35 44.39107 10.52283 28107 ft 484 kts 146°
2026-04-25 18:35 44.36383 10.55030 28400 ft 486 kts 146°
2026-04-25 18:35 44.33608 10.57829 28721 ft 487 kts 146°
2026-04-25 18:35 44.30860 10.60602 29142 ft 486 kts 146°
2026-04-25 18:36 44.28140 10.63340 29554 ft 485 kts 146°
2026-04-25 18:36 44.25389 10.66096 29988 ft 484 kts 146°
2026-04-25 18:36 44.22669 10.68812 30388 ft 483 kts 146°
2026-04-25 18:36 44.19919 10.71556 30759 ft 482 kts 146°
2026-04-25 18:37 44.17261 10.74319 31132 ft 480 kts 144°
2026-04-25 18:37 44.14629 10.77204 31496 ft 479 kts 142°
2026-04-25 18:37 44.12060 10.80112 31848 ft 478 kts 142°
2026-04-25 18:37 44.09473 10.83069 32209 ft 477 kts 142°
2026-04-25 18:38 44.06911 10.85982 32565 ft 476 kts 142°
2026-04-25 18:38 44.04351 10.88851 32895 ft 474 kts 143°
2026-04-25 18:38 44.01749 10.91730 33235 ft 473 kts 143°
2026-04-25 18:38 43.99190 10.94538 33576 ft 472 kts 143°
2026-04-25 18:39 43.96627 10.97339 33930 ft 471 kts 143°
2026-04-25 18:39 43.94048 11.00153 34259 ft 469 kts 143°
2026-04-25 18:39 43.91474 11.02964 34566 ft 468 kts 143°
2026-04-25 18:39 43.88935 11.05737 34861 ft 467 kts 143°
2026-04-25 18:40 43.86404 11.08501 35161 ft 465 kts 143°
2026-04-25 18:40 43.83845 11.11294 35438 ft 464 kts 143°
2026-04-25 18:40 43.81328 11.14037 35717 ft 463 kts 143°
2026-04-25 18:40 43.78795 11.16800 35984 ft 462 kts 143°
2026-04-25 18:41 43.76275 11.19547 36245 ft 461 kts 143°
2026-04-25 18:41 43.73761 11.22283 36506 ft 460 kts 143°
2026-04-25 18:41 43.71252 11.25007 36761 ft 458 kts 143°
2026-04-25 18:41 43.68734 11.27736 37004 ft 458 kts 143°
2026-04-25 18:42 43.64547 11.32260 37091 ft 460 kts 144°
2026-04-25 18:42 43.58692 11.38584 37098 ft 459 kts 143°
2026-04-25 18:43 43.53634 11.44038 37102 ft 459 kts 143°
2026-04-25 18:43 43.48635 11.49422 37106 ft 459 kts 143°
2026-04-25 18:44 43.43584 11.54849 37107 ft 459 kts 143°
2026-04-25 18:44 43.38569 11.60229 37099 ft 459 kts 143°
2026-04-25 18:45 43.33532 11.65610 37109 ft 458 kts 143°
2026-04-25 18:45 43.28488 11.70983 37117 ft 458 kts 143°
2026-04-25 18:46 43.23472 11.76322 37113 ft 458 kts 143°
2026-04-25 18:46 43.18426 11.81676 37110 ft 457 kts 143°
2026-04-25 18:47 43.13407 11.86995 37108 ft 457 kts 143°
2026-04-25 18:47 43.08375 11.92322 37115 ft 457 kts 143°
2026-04-25 18:48 43.03338 11.97639 37113 ft 456 kts 143°
2026-04-25 18:48 42.98327 12.02915 37107 ft 456 kts 143°
2026-04-25 18:49 42.93310 12.08189 37107 ft 456 kts 143°
2026-04-25 18:49 42.88288 12.13457 37105 ft 455 kts 143°
2026-04-25 18:50 42.83263 12.18718 37103 ft 455 kts 143°
2026-04-25 18:50 42.78255 12.23949 37107 ft 454 kts 143°
2026-04-25 18:51 42.74047 12.28328 37103 ft 454 kts 143°
2026-04-25 18:51 42.68229 12.34373 37103 ft 453 kts 143°
2026-04-25 18:52 42.63207 12.39580 37101 ft 453 kts 143°
2026-04-25 18:52 42.58211 12.44775 37107 ft 453 kts 143°
2026-04-25 18:53 42.53195 12.49963 37104 ft 452 kts 143°
2026-04-25 18:53 42.48187 12.55121 37104 ft 452 kts 143°
2026-04-25 18:54 42.40681 12.62827 37099 ft 451 kts 143°
2026-04-25 18:55 42.35686 12.67955 37097 ft 451 kts 143°
2026-04-25 18:55 42.30686 12.73085 37100 ft 451 kts 143°
2026-04-25 18:56 42.25685 12.78193 37102 ft 451 kts 143°
2026-04-25 18:56 42.20673 12.83298 37105 ft 451 kts 143°
2026-04-25 18:57 42.15640 12.88413 37115 ft 451 kts 143°
2026-04-25 18:57 42.10667 12.93466 37124 ft 450 kts 143°
2026-04-25 18:58 42.05674 12.98533 37130 ft 450 kts 143°
2026-04-25 18:58 41.98167 13.06113 37133 ft 449 kts 143°
2026-04-25 18:59 41.88174 13.16181 37131 ft 448 kts 143°
2026-04-25 19:00 41.80700 13.23683 37127 ft 447 kts 143°
2026-04-25 19:01 41.73234 13.31087 37125 ft 446 kts 144°
2026-04-25 19:01 41.68237 13.36021 37125 ft 446 kts 144°
2026-04-25 19:02 41.60752 13.43398 37121 ft 445 kts 144°
2026-04-25 19:03 41.54942 13.49101 37122 ft 445 kts 144°
2026-04-25 19:03 41.48280 13.55650 37110 ft 445 kts 144°
2026-04-25 19:04 41.40817 13.62968 37114 ft 445 kts 144°
2026-04-25 19:05 41.30845 13.72682 37115 ft 444 kts 144°
2026-04-25 19:06 41.25887 13.77507 37114 ft 444 kts 144°
2026-04-25 19:06 41.18395 13.84774 37106 ft 444 kts 144°
2026-04-25 19:07 41.10934 13.92007 37105 ft 443 kts 144°
2026-04-25 19:08 41.03453 13.99232 37099 ft 443 kts 144°
2026-04-25 19:09 40.95153 14.07194 37102 ft 442 kts 144°
2026-04-25 19:10 40.86015 14.15959 37123 ft 442 kts 144°
2026-04-25 19:10 40.81047 14.20716 37122 ft 442 kts 144°
2026-04-25 19:11 40.76037 14.25489 37120 ft 442 kts 144°
2026-04-25 19:11 40.71059 14.30224 37116 ft 442 kts 144°
2026-04-25 19:12 40.66054 14.34995 37116 ft 442 kts 144°
2026-04-25 19:12 40.61078 14.39722 37117 ft 442 kts 144°
2026-04-25 19:13 40.56080 14.44453 37119 ft 442 kts 144°
2026-04-25 19:13 40.51095 14.49171 37122 ft 442 kts 144°
2026-04-25 19:14 40.46108 14.53874 37126 ft 442 kts 144°
2026-04-25 19:14 40.41111 14.58568 37129 ft 442 kts 144°
2026-04-25 19:15 40.36116 14.63263 37128 ft 442 kts 144°
2026-04-25 19:15 40.31098 14.67973 37126 ft 442 kts 144°
2026-04-25 19:16 40.26109 14.72642 37128 ft 442 kts 144°
2026-04-25 19:16 40.21093 14.77332 37132 ft 443 kts 144°
2026-04-25 19:17 40.16081 14.82010 37134 ft 443 kts 144°
2026-04-25 19:17 40.11320 14.87105 37137 ft 442 kts 139°
2026-04-25 19:18 40.06671 14.92385 37139 ft 443 kts 139°
2026-04-25 19:18 40.02024 14.97649 37144 ft 443 kts 139°
2026-04-25 19:19 39.97367 15.02906 37140 ft 443 kts 139°
2026-04-25 19:19 39.93489 15.07274 37140 ft 443 kts 139°
2026-04-25 19:20 39.88066 15.13366 37141 ft 443 kts 139°
2026-04-25 19:20 39.84174 15.17741 37139 ft 443 kts 139°
2026-04-25 19:21 39.79514 15.22965 37136 ft 443 kts 139°
2026-04-25 19:21 39.72506 15.30794 37139 ft 443 kts 139°
2026-04-25 19:22 39.67813 15.36036 37130 ft 443 kts 139°
2026-04-25 19:23 39.60799 15.43836 37118 ft 444 kts 139°
2026-04-25 19:23 39.53760 15.51656 37128 ft 444 kts 139°
2026-04-25 19:24 39.49069 15.56862 36364 ft 444 kts 139°
2026-04-25 19:24 39.44629 15.62395 34966 ft 443 kts 123°
2026-04-25 19:25 39.41463 15.69243 33430 ft 445 kts 119°
2026-04-25 19:25 39.39915 15.72704 32592 ft 447 kts 119°
2026-04-25 19:25 39.38352 15.76200 31708 ft 449 kts 119°
2026-04-25 19:26 39.36804 15.79664 30832 ft 452 kts 119°
2026-04-25 19:26 39.35224 15.83197 29877 ft 455 kts 119°
2026-04-25 19:26 39.33626 15.86765 28793 ft 458 kts 119°
2026-04-25 19:26 39.32024 15.90330 27710 ft 461 kts 119°
2026-04-25 19:27 39.30409 15.93915 26612 ft 464 kts 119°
2026-04-25 19:27 39.29335 15.96297 26060 ft 462 kts 119°
2026-04-25 19:27 39.27168 16.01092 24773 ft 462 kts 119°
2026-04-25 19:27 39.25544 16.04675 23801 ft 463 kts 119°
2026-04-25 19:28 39.23918 16.08253 22832 ft 461 kts 119°
2026-04-25 19:28 39.22297 16.11805 22002 ft 457 kts 119°
2026-04-25 19:28 39.20686 16.15321 21047 ft 456 kts 120°
2026-04-25 19:28 39.19068 16.18844 20142 ft 455 kts 120°
2026-04-25 19:29 39.17477 16.22298 19379 ft 452 kts 120°
2026-04-25 19:29 39.15867 16.25781 18649 ft 448 kts 119°
2026-04-25 19:29 39.14269 16.29223 17879 ft 444 kts 120°
2026-04-25 19:29 39.12708 16.32582 17155 ft 439 kts 120°
2026-04-25 19:30 39.11149 16.35936 16458 ft 435 kts 120°
2026-04-25 19:30 39.09599 16.39264 15752 ft 430 kts 120°
2026-04-25 19:30 39.08077 16.42524 14811 ft 422 kts 120°
2026-04-25 19:30 39.06573 16.45742 13827 ft 417 kts 120°
2026-04-25 19:31 39.05086 16.48918 12781 ft 411 kts 120°
2026-04-25 19:31 39.03607 16.52071 11736 ft 405 kts 120°
2026-04-25 19:31 39.02159 16.55151 10812 ft 398 kts 120°
2026-04-25 19:31 39.00770 16.58095 10320 ft 373 kts 120°
2026-04-25 19:32 38.99466 16.60851 9964 ft 348 kts 120°
2026-04-25 19:32 38.98245 16.63419 9569 ft 327 kts 120°
2026-04-25 19:32 38.97081 16.65851 9146 ft 312 kts 120°
2026-04-25 19:32 38.96340 16.67394 8864 ft 302 kts 120°
2026-04-25 19:33 38.94897 16.70382 8275 ft 288 kts 120°
2026-04-25 19:33 38.93851 16.72548 7699 ft 283 kts 120°
2026-04-25 19:33 38.92829 16.74661 7092 ft 281 kts 120°
2026-04-25 19:33 38.91800 16.76780 6455 ft 279 kts 120°
2026-04-25 19:34 38.90759 16.78921 5927 ft 279 kts 120°
2026-04-25 19:34 38.89755 16.80994 5557 ft 276 kts 120°
2026-04-25 19:34 38.88744 16.83097 5161 ft 275 kts 120°
2026-04-25 19:34 38.87742 16.85193 4781 ft 273 kts 120°
2026-04-25 19:35 38.86877 16.87341 4355 ft 269 kts 105°
2026-04-25 19:35 38.86645 16.89684 3969 ft 264 kts 89°
2026-04-25 19:35 38.86632 16.92017 3673 ft 259 kts 89°
2026-04-25 19:35 38.86620 16.94306 3373 ft 254 kts 89°
2026-04-25 19:36 38.86611 16.96510 3077 ft 241 kts 89°
2026-04-25 19:36 38.86602 16.98608 2819 ft 229 kts 90°
2026-04-25 19:36 38.86590 17.00618 2654 ft 222 kts 90°
2026-04-25 19:36 38.86652 17.02571 2480 ft 216 kts 76°
2026-04-25 19:37 38.87226 17.04290 2392 ft 204 kts 59°
2026-04-25 19:37 38.87893 17.05821 2303 ft 190 kts 59°
2026-04-25 19:37 38.88515 17.07258 2307 ft 181 kts 59°
2026-04-25 19:37 38.89116 17.08646 2304 ft 178 kts 59°
2026-04-25 19:38 38.89886 17.09851 2306 ft 174 kts 29°
2026-04-25 19:38 38.90997 17.10214 2159 ft 164 kts 351°
2026-04-25 19:38 38.92075 17.09789 1912 ft 161 kts 342°
2026-04-25 19:38 38.93132 17.09493 1719 ft 149 kts 347°
2026-04-25 19:39 38.94136 17.09284 1496 ft 144 kts 349°
2026-04-25 19:39 38.95124 17.09122 1290 ft 143 kts 350°
2026-04-25 19:39 38.96106 17.08921 1105 ft 143 kts 346°
2026-04-25 19:39 38.97087 17.08674 929 ft 145 kts 345°
2026-04-25 19:40 38.98078 17.08428 724 ft 145 kts 346°
2026-04-25 19:40 38.99067 17.08181 538 ft 142 kts 346°
2026-04-25 19:40 38.99916 17.07968 527 ft 93 kts 348°
2026-04-25 19:40 39.00350 17.07858 529 ft 53 kts 349°
2026-04-25 19:41 39.00543 17.07784 531 ft 16 kts 322°
2026-04-25 19:41 39.00576 17.07792 531 ft 4 kts 111°
2026-04-25 19:41 39.00521 17.07815 531 ft 14 kts 168°
2026-04-25 19:41 39.00484 17.07824 530 ft 18 kts 168°
2026-04-25 19:42 39.00206 17.07894 529 ft 27 kts 169°
2026-04-25 19:42 39.00016 17.07942 528 ft 28 kts 168°
2026-04-25 19:42 38.99819 17.07991 526 ft 30 kts 169°
2026-04-25 19:42 38.99674 17.07998 526 ft 15 kts 225°
2026-04-25 19:43 38.99631 17.07867 527 ft 16 kts 252°
2026-04-25 19:43 38.99549 17.07835 526 ft 8 kts 168°
2026-04-25 19:43 38.99514 17.07816 526 ft 3 kts 258°
2026-04-25 19:43 38.99511 17.07793 526 ft 2 kts 258°
2026-04-25 19:44 38.99510 17.07788 526 ft 0 kts 258°